,,,PA_Meas_PMT16A,,PR_Meas_QMR101_102,,RH_Meas_QMH101,,SR_Meas_QMS101,,TA_Meas_QMH101,,GenWind,,GenWind,
date,time,status,PA,status,PR,status,RH,status,SR,status,TA,status,DirAvg,status,SpdAvg,
2008-11-27, 00:00:04,VALID,1003.73,VALID,0,VALID,87.076,VALID,0,VALID,25.3974,VALID,352,VALID,0.435156,
2008-11-27, 00:01:04,VALID,1003.71,VALID,0,VALID,86.8929,VALID,0,VALID,25.3955,VALID,348,VALID,0.813672,
2008-11-27, 00:02:04,VALID,1003.65,VALID,0,VALID,86.6793,VALID,0,VALID,25.4363,VALID,331,VALID,1.01602,
2008-11-27, 00:03:04,VALID,1003.66,VALID,0,VALID,86.6565,VALID,0,VALID,25.4363,VALID,351,VALID,0.744531,
2008-11-27, 00:04:04,VALID,1003.6,VALID,0,VALID,86.5878,VALID,0,VALID,25.4558,VALID,341,VALID,0.361328,
2008-11-27, 00:05:04,VALID,1003.57,VALID,0,VALID,86.5954,VALID,0,VALID,25.4344,VALID,334,VALID,0.788281,
2008-11-27, 00:06:04,VALID,1003.53,VALID,0,VALID,86.5649,VALID,0.100563,VALID,25.4558,VALID,334,VALID,0.721484,
2008-11-27, 00:07:04,VALID,1003.5,VALID,0,VALID,86.6717,VALID,0,VALID,25.4363,VALID,322,VALID,0.647266,
2008-11-27, 00:08:04,VALID,1003.48,VALID,0,VALID,86.687,VALID,0,VALID,25.3974,VALID,340,VALID,0.739844,
2008-11-27, 00:09:04,VALID,1003.46,VALID,0,VALID,86.7633,VALID,0,VALID,25.3974,VALID,360,VALID,0.617578,
2008-11-27, 00:10:04,VALID,1003.43,VALID,0,VALID,86.7327,VALID,0,VALID,25.4188,VALID,328,VALID,0.967578,
2008-11-27, 00:11:04,VALID,1003.42,VALID,0,VALID,86.3208,VALID,0,VALID,25.4169,VALID,317,VALID,0.807813,
2008-11-27, 00:12:04,VALID,1003.41,VALID,0,VALID,86.1987,VALID,0,VALID,25.4363,VALID,353,VALID,1.18398,
2008-11-27, 00:13:04,VALID,1003.39,VALID,0,VALID,86.0767,VALID,0,VALID,25.4558,VALID,360,VALID,0.809375,
2008-11-27, 00:14:04,VALID,1003.4,VALID,0,VALID,85.9699,VALID,0,VALID,25.4753,VALID,346,VALID,1.24297,
2008-11-27, 00:15:04,VALID,1003.39,VALID,0,VALID,85.9927,VALID,0,VALID,25.4753,VALID,350,VALID,0.71875,
2008-11-27, 00:16:04,VALID,1003.42,VALID,0,VALID,85.9927,VALID,0,VALID,25.4558,VALID,348,VALID,1.14219,
2008-11-27, 00:17:04,VALID,1003.38,VALID,0,VALID,86.0156,VALID,0,VALID,25.4753,VALID,340,VALID,0.976953,
2008-11-27, 00:18:04,VALID,1003.38,VALID,0,VALID,86.1301,VALID,0,VALID,25.4558,VALID,343,VALID,0.645703,
2008-11-27, 00:19:04,VALID,1003.37,VALID,0,VALID,86.1453,VALID,0,VALID,25.4753,VALID,346,VALID,0.3125,
2008-11-27, 00:20:04,VALID,1003.36,VALID,0,VALID,86.2292,VALID,0,VALID,25.4558,VALID,298,VALID,0.717578,
2008-11-27, 00:21:04,VALID,1003.38,VALID,0,VALID,86.2903,VALID,0,VALID,25.4149,VALID,348,VALID,0.798437,
2008-11-27, 00:22:04,VALID,1003.37,VALID,0,VALID,86.2445,VALID,0,VALID,25.4363,VALID,350,VALID,1.26172,
2008-11-27, 00:23:04,VALID,1003.38,VALID,0,VALID,86.2979,VALID,0.100563,VALID,25.4363,VALID,354,VALID,0.885938,
2008-11-27, 00:24:04,VALID,1003.42,VALID,0,VALID,86.2903,VALID,0,VALID,25.4149,VALID,347,VALID,0.89375,
2008-11-27, 00:25:04,VALID,1003.38,VALID,0,VALID,86.275,VALID,0.100563,VALID,25.4363,VALID,342,VALID,0.807422,
2008-11-27, 00:26:04,VALID,1003.38,VALID,0,VALID,86.1835,VALID,0,VALID,25.4558,VALID,344,VALID,0.803516,
2008-11-27, 00:27:04,VALID,1003.35,VALID,0,VALID,86.2674,VALID,0,VALID,25.4344,VALID,342,VALID,0.502734,
2008-11-27, 00:28:04,VALID,1003.36,VALID,0,VALID,86.3055,VALID,0,VALID,25.4344,VALID,351,VALID,0.441797,
2008-11-27, 00:29:04,VALID,1003.37,VALID,0,VALID,86.3513,VALID,0,VALID,25.4363,VALID,360,VALID,0.928125,
2008-11-27, 00:30:04,VALID,1003.36,VALID,0,VALID,86.3589,VALID,0,VALID,25.4363,VALID,351,VALID,0.198437,
2008-11-27, 00:31:04,VALID,1003.35,VALID,0,VALID,86.3742,VALID,0.100563,VALID,25.4558,VALID,353,VALID,0.728125,
2008-11-27, 00:32:04,VALID,1003.37,VALID,0,VALID,86.4581,VALID,0,VALID,25.4363,VALID,352,VALID,0.276953,
2008-11-27, 00:33:04,VALID,1003.37,VALID,0,VALID,86.5039,VALID,0.100563,VALID,25.4558,VALID,358,VALID,0.539844,
2008-11-27, 00:34:04,VALID,1003.37,VALID,0,VALID,86.5649,VALID,0,VALID,25.4558,VALID,355,VALID,0.192969,
2008-11-27, 00:35:04,VALID,1003.35,VALID,0,VALID,86.6031,VALID,0,VALID,25.4558,VALID,348,VALID,0.576563,
2008-11-27, 00:36:04,VALID,1003.35,VALID,0,VALID,86.7404,VALID,0,VALID,25.4753,VALID,359,VALID,0.657812,
2008-11-27, 00:37:04,VALID,1003.36,VALID,0,VALID,86.7022,VALID,0,VALID,25.4753,VALID,353,VALID,0.454688,
2008-11-27, 00:38:04,VALID,1003.35,VALID,0,VALID,86.9158,VALID,0,VALID,25.4753,VALID,353,VALID,0.355469,
2008-11-27, 00:39:04,VALID,1003.35,VALID,0,VALID,86.8548,VALID,0,VALID,25.4753,VALID,350,VALID,0.497656,
2008-11-27, 00:40:04,VALID,1003.33,VALID,0,VALID,87.0379,VALID,0,VALID,25.4967,VALID,350,VALID,0.519141,
2008-11-27, 00:41:04,VALID,1003.31,VALID,0,VALID,87.3202,VALID,0,VALID,25.4363,VALID,353,VALID,0.453125,
2008-11-27, 00:42:04,VALID,1003.29,VALID,0,VALID,87.3659,VALID,0,VALID,25.4383,VALID,350,VALID,0.651563,
2008-11-27, 00:43:04,VALID,1003.27,VALID,0,VALID,87.8237,VALID,0,VALID,25.3779,VALID,350,VALID,0.440234,
2008-11-27, 00:44:04,VALID,1003.26,VALID,0,VALID,87.8237,VALID,0,VALID,25.3409,VALID,347,VALID,0.769531,
2008-11-27, 00:45:04,VALID,1003.25,VALID,0,VALID,87.8618,VALID,0,VALID,25.3195,VALID,350,VALID,0.665625,
2008-11-27, 00:46:04,VALID,1003.23,VALID,0,VALID,87.8008,VALID,0,VALID,25.3584,VALID,352,VALID,0.391797,
2008-11-27, 00:47:04,VALID,1003.18,VALID,0,VALID,87.7398,VALID,0,VALID,25.339,VALID,350,VALID,0.550781,
2008-11-27, 00:48:04,VALID,1003.18,VALID,0,VALID,87.7016,VALID,0,VALID,25.3798,VALID,3,VALID,0.687891,
2008-11-27, 00:49:04,VALID,1003.13,VALID,0,VALID,87.6787,VALID,0,VALID,25.3779,VALID,306,VALID,0.315625,
2008-11-27, 00:50:04,VALID,1003.12,VALID,0,VALID,87.6711,VALID,0,VALID,25.3779,VALID,306,VALID,0.394141,
2008-11-27, 00:51:04,VALID,1003.08,VALID,0,VALID,87.5109,VALID,0,VALID,25.3974,VALID,307,VALID,0.344141,
2008-11-27, 00:52:04,VALID,1003.02,VALID,0,VALID,87.4575,VALID,0,VALID,25.3974,VALID,307,VALID,0.255859,
2008-11-27, 00:53:04,VALID,1002.98,VALID,0,VALID,87.3583,VALID,0,VALID,25.4363,VALID,307,VALID,0.0558594,
2008-11-27, 00:54:04,VALID,1002.94,VALID,0,VALID,87.2973,VALID,0,VALID,25.4577,VALID,307,VALID,0.003125,
2008-11-27, 00:55:04,VALID,1002.94,VALID,0,VALID,87.1676,VALID,0,VALID,25.4363,VALID,357,VALID,0.8375,
2008-11-27, 00:56:04,VALID,1002.91,VALID,0,VALID,87.2134,VALID,0,VALID,25.4363,VALID,346,VALID,0.719141,
2008-11-27, 00:57:04,VALID,1002.9,VALID,0,VALID,87.2591,VALID,0,VALID,25.4363,VALID,351,VALID,0.767578,
2008-11-27, 00:58:04,VALID,1002.85,VALID,0,VALID,87.343,VALID,0,VALID,25.4169,VALID,351,VALID,0.198047,
2008-11-27, 00:59:04,VALID,1002.84,VALID,0,VALID,87.4651,VALID,0,VALID,25.4402,VALID,326,VALID,0.575391,
2008-11-27, 01:00:04,VALID,1002.81,VALID,0,VALID,87.6253,VALID,0,VALID,25.4188,VALID,341,VALID,0.390234,
2008-11-27, 01:01:04,VALID,1002.78,VALID,0,VALID,87.6635,VALID,0,VALID,25.3779,VALID,340,VALID,0.159766,
2008-11-27, 01:02:04,VALID,1002.77,VALID,0,VALID,87.6787,VALID,0,VALID,25.3798,VALID,296,VALID,0.0519531,
2008-11-27, 01:03:04,VALID,1002.76,VALID,0,VALID,87.7169,VALID,0,VALID,25.3584,VALID,350,VALID,0.591797,
2008-11-27, 01:04:04,VALID,1002.78,VALID,0,VALID,87.7932,VALID,0,VALID,25.3584,VALID,359,VALID,0.506641,
2008-11-27, 01:05:04,VALID,1002.76,VALID,0,VALID,87.8084,VALID,0,VALID,25.3584,VALID,356,VALID,0.0816406,
2008-11-27, 01:06:04,VALID,1002.71,VALID,0,VALID,87.9305,VALID,0,VALID,25.339,VALID,356,VALID,0.256641,
2008-11-27, 01:07:04,VALID,1002.7,VALID,0,VALID,88.0373,VALID,0,VALID,25.3214,VALID,355,VALID,0.303906,
2008-11-27, 01:08:04,VALID,1002.68,VALID,0,VALID,88.1059,VALID,0,VALID,25.3,VALID,355,VALID,0.304297,
2008-11-27, 01:09:04,VALID,1002.67,VALID,0,VALID,88.228,VALID,0,VALID,25.3019,VALID,331,VALID,0.244531,
2008-11-27, 01:10:04,VALID,1002.63,VALID,0,VALID,88.2661,VALID,0,VALID,25.3,VALID,348,VALID,0.901563,
2008-11-27, 01:11:04,VALID,1002.59,VALID,0,VALID,88.2433,VALID,0,VALID,25.3195,VALID,350,VALID,0.388672,
2008-11-27, 01:12:04,VALID,1002.57,VALID,0,VALID,88.2814,VALID,0,VALID,25.3214,VALID,355,VALID,0.630859,
2008-11-27, 01:13:04,VALID,1002.56,VALID,0,VALID,88.167,VALID,0,VALID,25.339,VALID,344,VALID,0.4875,
2008-11-27, 01:14:04,VALID,1002.54,VALID,0,VALID,88.1059,VALID,0,VALID,25.3604,VALID,358,VALID,0.476563,
2008-11-27, 01:15:04,VALID,1002.5,VALID,0,VALID,87.8923,VALID,0,VALID,25.3584,VALID,356,VALID,0.711328,
2008-11-27, 01:16:04,VALID,1002.48,VALID,0,VALID,87.7626,VALID,0,VALID,25.3993,VALID,357,VALID,0.3375,
2008-11-27, 01:17:04,VALID,1002.47,VALID,0,VALID,87.6253,VALID,0,VALID,25.4188,VALID,359,VALID,0.476953,
2008-11-27, 01:18:04,VALID,1002.47,VALID,0,VALID,87.5719,VALID,0,VALID,25.4188,VALID,355,VALID,0.442578,
2008-11-27, 01:19:04,VALID,1002.43,VALID,0,VALID,87.549,VALID,0,VALID,25.3974,VALID,354,VALID,0.376953,
2008-11-27, 01:20:04,VALID,1002.45,VALID,0,VALID,87.5795,VALID,0,VALID,25.3974,VALID,342,VALID,0.0621094,
2008-11-27, 01:21:04,VALID,1002.45,VALID,0,VALID,87.6863,VALID,0,VALID,25.4188,VALID,338,VALID,0,
2008-11-27, 01:22:04,VALID,1002.47,VALID,0,VALID,87.6558,VALID,0,VALID,25.3798,VALID,338,VALID,0.261328,
2008-11-27, 01:23:04,VALID,1002.45,VALID,0,VALID,87.7398,VALID,0,VALID,25.3604,VALID,342,VALID,0.294922,
2008-11-27, 01:24:04,VALID,1002.45,VALID,0,VALID,87.816,VALID,0,VALID,25.3409,VALID,328,VALID,0.85,
2008-11-27, 01:25:04,VALID,1002.43,VALID,0,VALID,87.6711,VALID,0,VALID,25.3409,VALID,338,VALID,0.822656,
2008-11-27, 01:26:04,VALID,1002.42,VALID,0,VALID,87.6558,VALID,0,VALID,25.3195,VALID,353,VALID,0.525781,
2008-11-27, 01:27:04,VALID,1002.4,VALID,0,VALID,87.5719,VALID,0,VALID,25.3195,VALID,353,VALID,0.835938,
2008-11-27, 01:28:04,VALID,1002.38,VALID,0,VALID,87.5643,VALID,0,VALID,25.3195,VALID,346,VALID,0.517187,
2008-11-27, 01:29:04,VALID,1002.35,VALID,0,VALID,87.5719,VALID,0,VALID,25.3214,VALID,347,VALID,1.10977,
2008-11-27, 01:30:04,VALID,1002.32,VALID,0,VALID,87.4956,VALID,0,VALID,25.2806,VALID,348,VALID,0.821094,
2008-11-27, 01:31:04,VALID,1002.3,VALID,0,VALID,87.1218,VALID,0,VALID,25.3214,VALID,346,VALID,0.834375,
2008-11-27, 01:32:04,VALID,1002.28,VALID,0,VALID,87.0303,VALID,0,VALID,25.3195,VALID,343,VALID,0.862109,
2008-11-27, 01:33:04,VALID,1002.3,VALID,0,VALID,86.8472,VALID,0,VALID,25.339,VALID,347,VALID,0.735156,
2008-11-27, 01:34:04,VALID,1002.28,VALID,0,VALID,86.9006,VALID,0,VALID,25.339,VALID,347,VALID,0.35,
2008-11-27, 01:35:04,VALID,1002.25,VALID,0,VALID,86.8167,VALID,0,VALID,25.3604,VALID,347,VALID,0.495703,
2008-11-27, 01:36:04,VALID,1002.26,VALID,0,VALID,86.9311,VALID,0,VALID,25.3195,VALID,345,VALID,0.242578,
2008-11-27, 01:37:04,VALID,1002.24,VALID,0,VALID,87.1752,VALID,0,VALID,25.3195,VALID,345,VALID,0.171484,
2008-11-27, 01:38:04,VALID,1002.23,VALID,0,VALID,87.4499,VALID,0,VALID,25.2611,VALID,345,VALID,0,
2008-11-27, 01:39:04,VALID,1002.23,VALID,0,VALID,87.5948,VALID,0,VALID,25.263,VALID,345,VALID,0,
2008-11-27, 01:40:04,VALID,1002.22,VALID,0,VALID,87.7626,VALID,0,VALID,25.2221,VALID,345,VALID,0.245312,
2008-11-27, 01:41:04,VALID,1002.22,VALID,0,VALID,87.8694,VALID,0,VALID,25.2007,VALID,345,VALID,0,
2008-11-27, 01:42:04,VALID,1002.21,VALID,0,VALID,87.9457,VALID,0,VALID,25.1832,VALID,345,VALID,0.0203125,
2008-11-27, 01:43:04,VALID,1002.21,VALID,0,VALID,88.1288,VALID,0,VALID,25.1423,VALID,345,VALID,0,
2008-11-27, 01:44:04,VALID,1002.2,VALID,0,VALID,88.2204,VALID,0,VALID,25.1442,VALID,345,VALID,0.0847656,
2008-11-27, 01:45:04,VALID,1002.21,VALID,0,VALID,88.3729,VALID,0,VALID,25.1053,VALID,345,VALID,0.273828,
2008-11-27, 01:46:04,VALID,1002.22,VALID,0,VALID,88.6018,VALID,0,VALID,25.1072,VALID,345,VALID,0.144141,
2008-11-27, 01:47:04,VALID,1002.23,VALID,0,VALID,88.8917,VALID,0,VALID,25.0469,VALID,345,VALID,0.229297,
2008-11-27, 01:48:04,VALID,1002.22,VALID,0,VALID,89.1511,VALID,0,VALID,25.0079,VALID,345,VALID,0.272266,
2008-11-27, 01:49:04,VALID,1002.23,VALID,0,VALID,89.4944,VALID,0,VALID,24.93,VALID,345,VALID,0.373047,
2008-11-27, 01:50:04,VALID,1002.22,VALID,0,VALID,89.7843,VALID,0,VALID,24.8716,VALID,345,VALID,0.205078,
2008-11-27, 01:51:04,VALID,1002.21,VALID,0,VALID,89.9064,VALID,0,VALID,24.8327,VALID,345,VALID,0.202734,
2008-11-27, 01:52:04,VALID,1002.25,VALID,0,VALID,90.12,VALID,0,VALID,24.8132,VALID,345,VALID,0,
2008-11-27, 01:53:04,VALID,1002.26,VALID,0,VALID,90.2878,VALID,0,VALID,24.7761,VALID,345,VALID,0,
2008-11-27, 01:54:04,VALID,1002.28,VALID,0,VALID,90.509,VALID,0,VALID,24.714,VALID,345,VALID,0.271875,
2008-11-27, 01:55:04,VALID,1002.26,VALID,0,VALID,90.7608,VALID,0,VALID,24.6983,VALID,345,VALID,0.343359,
2008-11-27, 01:56:04,VALID,1002.27,VALID,0,VALID,90.9897,VALID,0,VALID,24.6185,VALID,345,VALID,0.483203,
2008-11-27, 01:57:04,VALID,1002.26,VALID,0,VALID,91.2719,VALID,0,VALID,24.5601,VALID,345,VALID,0.382422,
2008-11-27, 01:58:04,VALID,1002.27,VALID,0,VALID,91.5008,VALID,0,VALID,24.523,VALID,345,VALID,0.16875,
2008-11-27, 01:59:04,VALID,1002.23,VALID,0,VALID,91.7297,VALID,0,VALID,24.4822,VALID,345,VALID,0.377344,
2008-11-27, 02:00:04,VALID,1002.23,VALID,0,VALID,91.867,VALID,0,VALID,24.4238,VALID,345,VALID,0.489453,
2008-11-27, 02:01:04,VALID,1002.19,VALID,0,VALID,92.1187,VALID,0,VALID,24.4062,VALID,345,VALID,0.307813,
2008-11-27, 02:02:04,VALID,1002.18,VALID,0,VALID,92.3247,VALID,0,VALID,24.3867,VALID,345,VALID,0.319922,
2008-11-27, 02:03:04,VALID,1002.18,VALID,0,VALID,92.5078,VALID,0,VALID,24.3265,VALID,345,VALID,0.375781,
2008-11-27, 02:04:04,VALID,1002.16,VALID,0,VALID,92.6375,VALID,0,VALID,24.307,VALID,345,VALID,0.490234,
2008-11-27, 02:05:04,VALID,1002.14,VALID,0,VALID,92.7977,VALID,0,VALID,24.2875,VALID,345,VALID,0.414844,
2008-11-27, 02:06:04,VALID,1002.15,VALID,0,VALID,92.9045,VALID,0,VALID,24.2875,VALID,345,VALID,0.301172,
2008-11-27, 02:07:04,VALID,1002.15,VALID,0,VALID,92.9961,VALID,0,VALID,24.2681,VALID,345,VALID,0.180859,
2008-11-27, 02:08:04,VALID,1002.18,VALID,0,VALID,93.0571,VALID,0,VALID,24.2486,VALID,345,VALID,0,
2008-11-27, 02:09:04,VALID,1002.16,VALID,0,VALID,93.1029,VALID,0,VALID,24.2291,VALID,345,VALID,0,
2008-11-27, 02:10:04,VALID,1002.14,VALID,0,VALID,93.1791,VALID,0,VALID,24.2486,VALID,345,VALID,0,
2008-11-27, 02:11:04,VALID,1002.17,VALID,0,VALID,93.2631,VALID,0,VALID,24.2486,VALID,345,VALID,0,
2008-11-27, 02:12:04,VALID,1002.16,VALID,0,VALID,93.2631,VALID,0,VALID,24.2486,VALID,345,VALID,0,
2008-11-27, 02:13:04,VALID,1002.18,VALID,0,VALID,93.2325,VALID,0,VALID,24.2486,VALID,345,VALID,0,
2008-11-27, 02:14:04,VALID,1002.17,VALID,0,VALID,93.2325,VALID,0,VALID,24.2291,VALID,345,VALID,0.0433594,
2008-11-27, 02:15:04,VALID,1002.2,VALID,0,VALID,93.408,VALID,0,VALID,24.2291,VALID,336,VALID,0.122656,
2008-11-27, 02:16:04,VALID,1002.19,VALID,0,VALID,93.347,VALID,0,VALID,24.2681,VALID,336,VALID,0.00195313,
2008-11-27, 02:17:04,VALID,1002.22,VALID,0,VALID,93.3088,VALID,0,VALID,24.2486,VALID,336,VALID,0.00351562,
2008-11-27, 02:18:04,VALID,1002.21,VALID,0,VALID,93.2783,VALID,0,VALID,24.2875,VALID,336,VALID,0,
2008-11-27, 02:19:04,VALID,1002.2,VALID,0,VALID,93.2249,VALID,0,VALID,24.2681,VALID,336,VALID,0,
2008-11-27, 02:20:04,VALID,1002.18,VALID,0,VALID,93.2554,VALID,0,VALID,24.2486,VALID,336,VALID,0,
2008-11-27, 02:21:04,VALID,1002.2,VALID,0,VALID,93.2631,VALID,0,VALID,24.2681,VALID,336,VALID,0,
2008-11-27, 02:22:04,VALID,1002.17,VALID,0,VALID,93.2325,VALID,0,VALID,24.2681,VALID,336,VALID,0,
2008-11-27, 02:23:04,VALID,1002.18,VALID,0,VALID,93.1944,VALID,0,VALID,24.2486,VALID,336,VALID,0,
2008-11-27, 02:24:04,VALID,1002.16,VALID,0,VALID,93.1868,VALID,0,VALID,24.2097,VALID,336,VALID,0,
2008-11-27, 02:25:04,VALID,1002.18,VALID,0,VALID,93.2783,VALID,0,VALID,24.1902,VALID,336,VALID,0,
2008-11-27, 02:26:04,VALID,1002.16,VALID,0,VALID,93.3622,VALID,0,VALID,24.1707,VALID,336,VALID,0,
2008-11-27, 02:27:04,VALID,1002.13,VALID,0,VALID,93.4156,VALID,0,VALID,24.1513,VALID,336,VALID,0,
2008-11-27, 02:28:04,VALID,1002.13,VALID,0,VALID,93.4996,VALID,0,VALID,24.1513,VALID,336,VALID,0,
2008-11-27, 02:29:04,VALID,1002.15,VALID,0,VALID,93.5911,VALID,0,VALID,24.1513,VALID,336,VALID,0,
2008-11-27, 02:30:04,VALID,1002.11,VALID,0,VALID,93.6064,VALID,0,VALID,24.1318,VALID,336,VALID,0,
2008-11-27, 02:31:04,VALID,1002.06,VALID,0,VALID,93.6369,VALID,0,VALID,24.1318,VALID,336,VALID,0,
2008-11-27, 02:32:04,VALID,1002.06,VALID,0,VALID,93.6826,VALID,0,VALID,24.091,VALID,336,VALID,0,
2008-11-27, 02:33:04,VALID,1002.02,VALID,0,VALID,93.7208,VALID,0,VALID,24.1318,VALID,336,VALID,0,
2008-11-27, 02:34:04,VALID,1001.99,VALID,0,VALID,93.7742,VALID,0,VALID,24.091,VALID,336,VALID,0,
2008-11-27, 02:35:04,VALID,1001.97,VALID,0,VALID,93.8047,VALID,0,VALID,24.0929,VALID,337,VALID,0,
2008-11-27, 02:36:04,VALID,1001.94,VALID,0,VALID,93.8276,VALID,0,VALID,24.0929,VALID,336,VALID,0,
2008-11-27, 02:37:04,VALID,1001.95,VALID,0,VALID,93.9115,VALID,0,VALID,24.0734,VALID,336,VALID,0,
2008-11-27, 02:38:04,VALID,1001.96,VALID,0,VALID,93.9268,VALID,0,VALID,24.0752,VALID,337,VALID,0.396094,
2008-11-27, 02:39:04,VALID,1001.93,VALID,0,VALID,93.9573,VALID,0,VALID,24.0132,VALID,336,VALID,0.233594,
2008-11-27, 02:40:04,VALID,1001.91,VALID,0,VALID,93.9878,VALID,0,VALID,24.0345,VALID,336,VALID,0.0679687,
2008-11-27, 02:41:04,VALID,1001.92,VALID,0,VALID,94.0488,VALID,0,VALID,24.0345,VALID,336,VALID,0.0484375,
2008-11-27, 02:42:04,VALID,1001.89,VALID,0,VALID,94.1328,VALID,0,VALID,24.0539,VALID,336,VALID,0,
2008-11-27, 02:43:04,VALID,1001.88,VALID,0,VALID,94.1633,VALID,0,VALID,24.0539,VALID,336,VALID,0.169141,
2008-11-27, 02:44:04,VALID,1001.86,VALID,0,VALID,94.2701,VALID,0,VALID,24.0734,VALID,336,VALID,0.096875,
2008-11-27, 02:45:04,VALID,1001.83,VALID,0,VALID,94.2624,VALID,0,VALID,24.0716,VALID,343,VALID,0.301562,
2008-11-27, 02:46:04,VALID,1001.85,VALID,0,VALID,94.2319,VALID,0,VALID,24.0734,VALID,343,VALID,0.0394531,
2008-11-27, 02:47:04,VALID,1001.85,VALID,0,VALID,94.2396,VALID,0,VALID,24.0929,VALID,343,VALID,0.282813,
2008-11-27, 02:48:04,VALID,1001.83,VALID,0,VALID,94.2396,VALID,0,VALID,24.1142,VALID,343,VALID,0.219531,
2008-11-27, 02:49:04,VALID,1001.86,VALID,0,VALID,94.2548,VALID,0,VALID,24.0521,VALID,343,VALID,0.182422,
2008-11-27, 02:50:04,VALID,1001.82,VALID,0,VALID,94.2396,VALID,0.100563,VALID,24.0521,VALID,343,VALID,0,
2008-11-27, 02:51:04,VALID,1001.85,VALID,0,VALID,94.2243,VALID,0,VALID,24.0326,VALID,343,VALID,0,
2008-11-27, 02:52:04,VALID,1001.84,VALID,0,VALID,94.2319,VALID,0,VALID,24.0345,VALID,343,VALID,0.00078125,
2008-11-27, 02:53:04,VALID,1001.85,VALID,0,VALID,94.2396,VALID,0,VALID,24.0557,VALID,343,VALID,0,
2008-11-27, 02:54:04,VALID,1001.83,VALID,0,VALID,94.2777,VALID,0,VALID,24.015,VALID,343,VALID,0,
2008-11-27, 02:55:04,VALID,1001.82,VALID,0,VALID,94.3235,VALID,0,VALID,23.9955,VALID,343,VALID,0.225,
2008-11-27, 02:56:04,VALID,1001.87,VALID,0,VALID,94.3311,VALID,0,VALID,23.9742,VALID,343,VALID,0.0601562,
2008-11-27, 02:57:04,VALID,1001.85,VALID,0,VALID,94.3387,VALID,0,VALID,23.9955,VALID,343,VALID,0,
2008-11-27, 02:58:04,VALID,1001.88,VALID,0,VALID,94.3692,VALID,0,VALID,23.9761,VALID,343,VALID,0.00390625,
2008-11-27, 02:59:04,VALID,1001.89,VALID,0,VALID,94.4074,VALID,0,VALID,23.9761,VALID,343,VALID,0,
2008-11-27, 03:00:04,VALID,1001.89,VALID,0,VALID,94.3998,VALID,0,VALID,23.9566,VALID,343,VALID,0,
2008-11-27, 03:01:04,VALID,1001.9,VALID,0,VALID,94.4455,VALID,0,VALID,23.9371,VALID,343,VALID,0.0152344,
2008-11-27, 03:02:04,VALID,1001.91,VALID,0,VALID,94.4761,VALID,0,VALID,23.9371,VALID,343,VALID,0.170703,
2008-11-27, 03:03:04,VALID,1001.89,VALID,0,VALID,94.4761,VALID,0,VALID,23.9371,VALID,343,VALID,0.472656,
2008-11-27, 03:04:04,VALID,1001.88,VALID,0,VALID,94.5066,VALID,0.100563,VALID,23.9159,VALID,343,VALID,0.342578,
2008-11-27, 03:05:04,VALID,1001.85,VALID,0,VALID,94.5981,VALID,0,VALID,23.9371,VALID,343,VALID,0.164844,
2008-11-27, 03:06:04,VALID,1001.87,VALID,0,VALID,94.6668,VALID,0,VALID,23.9566,VALID,343,VALID,0.144141,
2008-11-27, 03:07:04,VALID,1001.84,VALID,0,VALID,94.7354,VALID,0,VALID,23.9548,VALID,343,VALID,0.0078125,
2008-11-27, 03:08:04,VALID,1001.84,VALID,0,VALID,94.7354,VALID,0,VALID,23.9955,VALID,343,VALID,0.0546875,
2008-11-27, 03:09:04,VALID,1001.87,VALID,0,VALID,94.7202,VALID,0,VALID,23.9955,VALID,343,VALID,0.144531,
2008-11-27, 03:10:04,VALID,1001.86,VALID,0,VALID,94.7354,VALID,0,VALID,24.015,VALID,343,VALID,0.229687,
2008-11-27, 03:11:04,VALID,1001.86,VALID,0,VALID,94.766,VALID,0,VALID,24.015,VALID,343,VALID,0.291797,
2008-11-27, 03:12:04,VALID,1001.86,VALID,0,VALID,94.7812,VALID,0,VALID,24.0539,VALID,343,VALID,0.297266,
2008-11-27, 03:13:04,VALID,1001.84,VALID,0,VALID,94.8117,VALID,0,VALID,24.0539,VALID,343,VALID,0.0933594,
2008-11-27, 03:14:04,VALID,1001.87,VALID,0,VALID,94.7812,VALID,0,VALID,24.0326,VALID,343,VALID,0,
2008-11-27, 03:15:04,VALID,1001.85,VALID,0,VALID,94.766,VALID,0,VALID,24.0734,VALID,343,VALID,0.015625,
2008-11-27, 03:16:04,VALID,1001.85,VALID,0,VALID,94.766,VALID,0,VALID,24.0326,VALID,343,VALID,0.134375,
2008-11-27, 03:17:04,VALID,1001.85,VALID,0,VALID,94.7431,VALID,0,VALID,24.0539,VALID,343,VALID,0,
2008-11-27, 03:18:04,VALID,1001.82,VALID,0,VALID,94.8499,VALID,0,VALID,24.0734,VALID,343,VALID,0.00429688,
2008-11-27, 03:19:04,VALID,1001.82,VALID,0,VALID,94.8194,VALID,0,VALID,24.0521,VALID,343,VALID,0.00195313,
2008-11-27, 03:20:04,VALID,1001.83,VALID,0,VALID,94.766,VALID,0,VALID,24.0521,VALID,343,VALID,0,
2008-11-27, 03:21:04,VALID,1001.79,VALID,0,VALID,94.766,VALID,0,VALID,24.0734,VALID,343,VALID,0,
2008-11-27, 03:22:04,VALID,1001.81,VALID,0,VALID,94.7049,VALID,0,VALID,24.0539,VALID,343,VALID,0,
2008-11-27, 03:23:04,VALID,1001.8,VALID,0,VALID,94.7202,VALID,0,VALID,24.0326,VALID,343,VALID,0,
2008-11-27, 03:24:04,VALID,1001.8,VALID,0,VALID,94.6744,VALID,0,VALID,24.015,VALID,343,VALID,0,
2008-11-27, 03:25:04,VALID,1001.81,VALID,0,VALID,94.6363,VALID,0,VALID,23.9955,VALID,343,VALID,0.225,
2008-11-27, 03:26:04,VALID,1001.82,VALID,0,VALID,94.6286,VALID,0,VALID,23.9566,VALID,343,VALID,0.152734,
2008-11-27, 03:27:04,VALID,1001.81,VALID,0,VALID,94.6363,VALID,0.100563,VALID,23.9761,VALID,343,VALID,0.385547,
2008-11-27, 03:28:04,VALID,1001.82,VALID,0,VALID,94.6286,VALID,0,VALID,23.9371,VALID,343,VALID,0.148438,
2008-11-27, 03:29:04,VALID,1001.83,VALID,0,VALID,94.5829,VALID,0,VALID,23.8769,VALID,343,VALID,0.232031,
2008-11-27, 03:30:04,VALID,1001.84,VALID,0,VALID,94.6515,VALID,0,VALID,23.8787,VALID,343,VALID,0.373437,
2008-11-27, 03:31:04,VALID,1001.84,VALID,0,VALID,94.6973,VALID,0,VALID,23.8787,VALID,343,VALID,0.294922,
2008-11-27, 03:32:04,VALID,1001.84,VALID,0,VALID,94.8117,VALID,0,VALID,23.9177,VALID,343,VALID,0.296094,
2008-11-27, 03:33:04,VALID,1001.84,VALID,0,VALID,94.9719,VALID,0,VALID,24.0168,VALID,343,VALID,0.448828,
2008-11-27, 03:34:04,VALID,1001.89,VALID,0,VALID,94.9796,VALID,0,VALID,24.0345,VALID,344,VALID,0.529297,
2008-11-27, 03:35:04,VALID,1001.86,VALID,0,VALID,94.9719,VALID,0.100563,VALID,24.0539,VALID,343,VALID,0.348437,
2008-11-27, 03:36:04,VALID,1001.84,VALID,0,VALID,94.9719,VALID,0,VALID,24.0734,VALID,343,VALID,0.360156,
2008-11-27, 03:37:04,VALID,1001.85,VALID,0,VALID,94.9719,VALID,0,VALID,24.0539,VALID,343,VALID,0.464844,
2008-11-27, 03:38:04,VALID,1001.84,VALID,0,VALID,94.9033,VALID,0,VALID,24.0734,VALID,343,VALID,0.432422,
2008-11-27, 03:39:04,VALID,1001.84,VALID,0,VALID,94.8651,VALID,0,VALID,24.0132,VALID,343,VALID,0.314063,
2008-11-27, 03:40:04,VALID,1001.84,VALID,0,VALID,94.888,VALID,0,VALID,24.015,VALID,343,VALID,0.206641,
2008-11-27, 03:41:04,VALID,1001.82,VALID,0,VALID,94.9109,VALID,0,VALID,23.9937,VALID,343,VALID,0,
2008-11-27, 03:42:04,VALID,1001.82,VALID,0,VALID,94.8575,VALID,0.100563,VALID,23.9742,VALID,343,VALID,0.164844,
2008-11-27, 03:43:04,VALID,1001.85,VALID,0,VALID,94.8346,VALID,0,VALID,23.9761,VALID,343,VALID,0,
2008-11-27, 03:44:04,VALID,1001.85,VALID,0,VALID,94.8728,VALID,0,VALID,23.9761,VALID,343,VALID,0,
2008-11-27, 03:45:04,VALID,1001.82,VALID,0,VALID,94.8651,VALID,0,VALID,23.9761,VALID,343,VALID,0,
2008-11-27, 03:46:04,VALID,1001.82,VALID,0,VALID,94.9414,VALID,0,VALID,23.9955,VALID,343,VALID,0,
2008-11-27, 03:47:04,VALID,1001.81,VALID,0,VALID,95.0101,VALID,0,VALID,24.015,VALID,343,VALID,0,